Regional Weather Roundup
Issued by NWS

Home | Current Version | Previous Version | Graphics & Text | Print | Product List | Glossary On
Versions: 1 2 3 4 5 6 7 8 9 10 11 12 13 14 15 16 17 18 19 20 21 22 23 24 25 26 27 28 29 30 31 32 33 34 35 36 37 38 39 40 41 42 43 44 45 46 47 48 49 50
000
ASUS43 KMKX 262121
RWRWI

WISCONSIN REGIONAL WEATHER ROUNDUP
NATIONAL WEATHER SERVICE MILWAUKEE/SULLIVAN WI
400 PM CDT MON SEP 26 2016

NOTE: "FAIR" INDICATES FEW OR NO CLOUDS BELOW 12,000 FEET WITH NO
SIGNIFICANT WEATHER AND/OR OBSTRUCTIONS TO VISIBILITY.

WIZ001-002-006>008-014>016-023>028-262200-
NORTHWEST WISCONSIN

CITY           SKY/WX    TMP DP  RH WIND       PRES   REMARKS
SUPERIOR ARPT  DRIZZLE   55  45  69 W10       29.76S
ASHLAND        CLOUDY    51  47  86 SW13G24   29.73R
HAYWARD        LGT RAIN  53  43  68 SW9       29.78S
SIREN          CLOUDY    60  37  42 W16G29    29.82R
CUMBERLAND     CLOUDY    57  37  47 W24G35    29.83S
RICE LAKE      CLOUDY    60  37  42 W16G26    29.84S
CHETEK         NOT AVBL
LADYSMITH      CLOUDY    56  42  58 W16G28    29.82R
EAU CLAIRE     CLOUDY    61  39  44 W14G29    29.85R
MENOMONIE      PTSUNNY   63  39  41 W17G28    29.86S
NEW RICHMOND   PTSUNNY   60  38  43 W14G25    29.87S
OSCEOLA        CLOUDY    62  39  43 W16G26    29.90S
$$

WIZ003>005-009-010-017-018-262200-
NORTH CENTRAL WISCONSIN

CITY           SKY/WX    TMP DP  RH WIND       PRES   REMARKS
MANITOWISH WTR NOT AVBL
ARBOR VITAE    DRIZZLE   51  49  91 W15G23    29.74R
WOODRUFF       DRIZZLE   51  49  91 W15G23    29.74R
RHINELANDER    LGT RAIN  50  45  83 W20G31    29.76R
EAGLE RIVER    DRIZZLE   49  44  84 W20G26    29.72S
LAND O LAKES   DRIZZLE   48  46  93 W8G18     29.71S
PHILLIPS       CLOUDY    52  43  72 W8G21     29.77S
TOMAHAWK       DRIZZLE   51  42  71 W12G22    29.79R
MEDFORD        CLOUDY    55  40  58 W14G22    29.80S
MERRILL        CLOUDY    55  40  58 W16G30    29.79R
$$

WIZ029-030-035-036-043>047-262200-
CENTRAL WISCONSIN

CITY           SKY/WX    TMP DP  RH WIND       PRES   REMARKS
WAUSAU         CLOUDY    56  38  50 W18G29    29.79R
MOSINEE        PTSUNNY   55  37  50 W18G33    29.82R
MARSHFIELD     CLOUDY    59  37  44 W15G32    29.83R
STEVENS POINT  CLOUDY    58  37  45 W18G29    29.82R
WAUPACA        PTSUNNY   65  38  36 W17G29    29.81S
WAUTOMA        MOSUNNY   64  37  36 W21G31    29.83S
WISC RAPIDS    MOSUNNY   61  38  42 NW21G33   29.85R
CAMP DOUGLAS   SUNNY     63  39  41 W16G31    29.85S
$$

WIZ011>013-019>022-031-037>040-048>050-262200-
NORTHEAST WISCONSIN

CITY           SKY/WX    TMP DP  RH WIND       PRES   REMARKS
ANTIGO         LGT RAIN  53  41  65 W17G28    29.77R
SHAWANO        CLOUDY    61  40  45 W14G29    29.77S
OCONTO         NOT AVBL
STURGEON BAY   CLOUDY    59  43  55 W10G18    29.76R
GREEN BAY      PTSUNNY   64  42  44 W18G26    29.78S
MANITOWOC      MOSUNNY   63  37  38 MISG      29.80S
APPLETON       PTSUNNY   63  36  36 W16G29    29.79F
CLINTONVILLE   NOT AVBL
OSHKOSH        CLOUDY    63  38  39 W9G22     29.81F
$$

WIZ032>034-041-042-053>061-262200-
SOUTHWEST WISCONSIN

CITY           SKY/WX    TMP DP  RH WIND       PRES   REMARKS
LA CROSSE      SUNNY     70  39  32 W16G24    29.87S
SPARTA         PTSUNNY   66  37  34 W20G25    29.88R
VIROQUA        SUNNY     66  32  28 W17G25    29.89F
BOSCOBEL       SUNNY     70  32  24 W23G35    29.91S
PRAIRIE DU CHI SUNNY     69  30  23 W24G32    29.91F
PLATTEVILLE    SUNNY     68  35  29 W25G31    29.94F
$$

WIZ056-057-062-063-064-067-068-262200-
SOUTH CENTRAL WISCONSIN

CITY           SKY/WX    TMP DP  RH WIND       PRES   REMARKS
REEDSBURG      NOT AVBL
BARABOO/DELLS  PTSUNNY   66  32  28 W17G28    29.86F
LONE ROCK      MOSUNNY   68  32  26 W25G33    29.89F
MINERAL POINT  SUNNY     68  30  24 W18G30    29.92S
MADISON        PTSUNNY   65  33  30 W18G26    29.87F
MIDDLETON      NOT AVBL
WATERTOWN      CLOUDY    64  37  36 W14G25    29.87S
MONROE         SUNNY     66  32  28 W30G38    29.92F
JANESVILLE     MOSUNNY   68  32  26 W22G31    29.90F
$$

WIZ051-052-058>065-066-070>072-262200-
SOUTHEAST WISCONSIN

CITY           SKY/WX    TMP DP  RH WIND       PRES   REMARKS
MILWAUKEE      MOSUNNY   67  36  31 W18G28    29.88S
WAUKESHA       PTSUNNY   63  37  39 W17G32    29.89S
MILWAUKEE/TIMM PTSUNNY   64  34  32 W20G37    29.87F
RACINE         MOSUNNY   66  36  32 W17G31    29.90S
BURLINGTON     SUNNY     65  35  32 W12G33    29.89F
KENOSHA        MOSUNNY   67  37  33 W23G35    29.89F
FOND DU LAC    CLOUDY    62  37  39 W24G33    29.83F
SHEBOYGAN      CLOUDY    62  38  40 W18G31    29.83R
WEST BEND      CLOUDY    61  36  39 W14G23    29.85S
JUNEAU         PTSUNNY   63  36  36 W20G29    29.87S
$$

LSZ147-162-262200-
LAKE SUPERIOR

STATION/POSITION TIME  TEMP    WIND        PRES    WAVE
                       AIR SEA DIR/SP/G            HT/PER
                 (UTC) (F)     (DEG/KT/KT) (MB)    (FT/S)
W MID LAKE BUOY  2050   51 48  250/ 25/ 29 1000.9R   8/ 7
DEVILS ISLAND    2100   53     250/ 30/ 36 1004.0R
SAXON HARBOR     2040   52     230/  7/ 12 1006.1R
$$

LMZ867-665-643>646-262200-
LAKE MICHIGAN

STATION/POSITION TIME  TEMP    WIND        PRES    WAVE
                       AIR SEA DIR/SP/G            HT/PER
                 (UTC) (F)     (DEG/KT/KT) (MB)    (FT/S)
CHAMBERS ISLAND  2000   59     240/ 14/ 27 1006.4R
N MID LAKE BUOY  2050   60 67  250/ 29/ 33 1004.3F   6/ 6
NORTHPORT PIER   2000   60     260/  5/ 25 1006.4R
KEWAUNEE LAKESHO 2000   62     270/ 11/ 17 1007.6R
SHEBOYGAN LAKESH 2100   63     260/ 24/ 28 1009.7R
PORT WASHINGTON  2000   67     270/  9/ 23 1011.2F
ATWATER BUOY     2100   64 54  240/ 17/ 25 1011.2F
MILWAUKEE LAKESH 2010   64     250/ 16/ 19   N/A
S MID LAKE BUOY  2050   65 71  260/ 21/ 27 1011.3R   5/ 5
KENOSHA   LAKESH 2100   67     260/ 19/ 26 1011.9F
$$

TC  - TEMPERATURE IN CELSIUS
VSB - VISIBILITY IN STATUTE MILES
WCI - WIND CHILL INDEX
HX  - HEAT INDEX





USA.gov is the U.S. government's official web portal to all federal, state and local government web resources and services.